[[{"header":{"parameterUnit":"m.s-1","parameterCategory":1,"la1":30.2991,"la2":30.254,"lo1":-89.0895,"lo2":-89.0444,"dy":0.0017,"dx":0.0017,"nx":28,"ny":28,"refTime":"2025-04-22T21:00:00:Z","depth":0,"parameterNumber":2,"parameterNumberName":"U-component_of_WINDS"},"data":[0,0,0,0,0,0,0,0,0,0,0,0,0,0,0,0,0,0,0,0,0,0,0,0,0,0,0,0,0,0,0,0,0,0,0,0,0,0,0,0,0,0,0,0,0,0,0,0,0,0,0,0,0,0,0,0,0,0,-2.0431,-2.043,0,-2.0331,-2.033,-2.0329,-2.0236,-2.0235,-2.0234,-2.0232,-2.0127,-2.0126,-2.0124,0,0,0,0,0,0,0,0,0,0,0,0,0,-2.0537,-2.0536,-2.0431,-2.0429,-2.0428,-2.0331,-2.033,-2.0329,-2.0236,-2.0235,-2.0233,-2.0232,-2.0128,-2.0126,-2.0124,0,0,0,0,0,0,0,0,0,0,0,0,0,-2.047,-2.0535,-2.0431,-2.037,-2.0364,-2.0332,-2.033,-2.0328,-2.0236,-2.0235,-2.0233,-2.0231,-2.0129,-2.0126,-2.0124,-2.0142,0,0,-2.0116,-2.0114,0,0,0,0,0,0,0,0,-2.0474,-2.0466,-2.0381,-2.0374,-2.0367,-2.0294,-2.0329,-2.0266,-2.0237,-2.0285,-2.0232,-2.023,-2.0184,-2.0177,-2.0162,-2.0137,-2.0133,-2.0115,-2.0114,-2.0113,-2.0112,0,0,0,0,0,0,0,-2.0479,-2.047,-2.0391,-2.0379,-2.0371,-2.0347,-2.0336,-2.0317,-2.0245,-2.028,-2.0273,-2.0263,-2.018,-2.0165,-2.0159,-2.0131,-2.0115,-2.0113,-2.0112,-2.0111,-2.0116,-2.0117,0,0,0,0,0,0,-2.0493,-2.0474,-2.0394,-2.0388,-2.0417,-2.0347,-2.0334,-2.0319,-2.0245,-2.0232,-2.0265,-2.0259,-2.017,-2.0162,-2.0155,-2.0171,-2.0113,-2.011,-2.0109,-2.0114,-2.0116,-2.0118,0,0,0,0,0,0,-2.0496,-2.0487,-2.0398,-2.0429,-2.0416,-2.0347,-2.0331,-2.0318,-2.0303,-2.0233,-2.022,-2.0262,-2.0168,-2.0158,-2.0146,-2.0166,-2.0109,-2.0107,-2.0112,-2.0115,-2.0117,-2.0204,0,0,0,0,0,0,-2.0499,-2.0488,-2.0495,-2.043,-2.0415,-2.0392,-2.0332,-2.0318,-2.0299,-2.0291,-2.0227,-2.0215,-2.0166,-2.015,-2.0143,-2.0161,-2.0105,-2.011,-2.0113,-2.0116,-2.0199,-2.0209,-2.0217,0,0,0,0,0,-2.0503,-2.0523,-2.0496,-2.0487,-2.0422,-2.0394,-2.0385,-2.0329,-2.0301,-2.0307,-2.0262,-2.0217,-2.0165,-2.015,-2.0141,-2.0158,-2.0108,-2.0112,-2.0116,-2.0194,-2.0207,-2.0217,0,0,0,0,0,0,-2.0591,-2.0513,-2.0482,-2.0482,-2.0445,-2.0378,-2.0384,-2.0344,-2.0314,-2.0307,-2.0238,-2.0225,-2.022,-2.0188,-2.0172,-2.0172,-2.013,-2.0133,-2.0193,-2.0204,-2.0214,-2.0221,-2.0103,0,0,0,0,0,-2.061,-2.0594,-2.0527,-2.0533,-2.0516,-2.0454,-2.0439,-2.0399,-2.0358,-2.0342,-2.0296,-2.0257,-2.0232,-2.0216,-2.0189,-2.0194,-2.0178,-2.0202,-2.0211,-2.0219,-2.0222,-2.0221,-2.023,-2.013,-2.013,-2.013,0,0,-2.065,-2.0605,-2.0599,-2.055,-2.0516,-2.0501,-2.0441,-2.0427,-2.0414,-2.0339,-2.0325,-2.029,-2.0242,-2.0238,-2.0234,-2.0212,-2.0246,-2.0224,-2.0231,-2.0229,-2.0226,-2.0235,-2.0244,-2.0133,-2.0133,-2.0132,0,0,-2.0713,-2.0679,-2.068,-2.0648,-2.0599,-2.0557,-2.0558,-2.0497,-2.0472,-2.0457,-2.04,-2.0383,-2.0342,-2.0309,-2.0287,-2.034,-2.0297,-2.0333,-2.0382,-2.0382,-2.039,-2.0397,-2.0415,-2.0422,-2.0336,-2.0337,-2.0337,0,-2.0768,-2.0743,-2.0685,-2.0674,-2.0654,-2.0587,-2.0587,-2.0558,-2.0503,-2.049,-2.0466,-2.0412,-2.0375,-2.0362,-2.0375,-2.036,-2.0358,-2.0339,-2.0394,-2.04,-2.0405,-2.0421,-2.0429,-2.0341,-2.0341,-2.034,-2.034,0,-2.0812,-2.0796,-2.0802,-2.0752,-2.0732,-2.0727,-2.0667,-2.0654,-2.0616,-2.0577,-2.0562,-2.0516,-2.0478,-2.0472,-2.0435,-2.0455,-2.0442,-2.0407,-2.0363,-2.042,-2.0434,-2.044,-2.0348,-2.0346,-2.0345,-2.0344,0,0,-2.0927,-2.0845,-2.0848,-2.0824,-2.0766,-2.0751,-2.0743,-2.0707,-2.0697,-2.0662,-2.0652,-2.0619,-2.0586,-2.0562,-2.052,-2.0521,-2.0565,-2.0485,-2.0483,-2.0501,-2.0582,-2.0608,-2.0616,-2.0537,-2.0538,-2.0538,-2.0586,0,-2.098,-2.0961,-2.0909,-2.0907,-2.089,-2.0827,-2.0819,-2.0783,-2.0746,-2.0726,-2.0685,-2.0662,-2.0621,-2.0606,-2.0604,-2.056,-2.058,-2.0556,-2.0526,-2.0525,-2.0539,-2.0624,-2.0651,-2.0698,-2.0591,-2.0592,-2.0593,0,-2.1038,-2.1008,-2.1004,-2.0947,-2.0938,-2.0932,-2.0895,-2.0877,-2.0834,-2.0807,-2.0781,-2.0735,-2.0722,-2.0683,-2.0663,-2.0648,-2.0633,-2.061,-2.061,-2.0604,-2.0562,-2.0619,-2.0712,-2.0719,-2.0601,-2.06,-2.06,0,-2.1121,-2.1079,-2.1071,-2.1053,-2.0986,-2.0983,-2.0955,-2.091,-2.0892,-2.086,-2.0847,-2.0814,-2.0795,-2.0769,-2.0716,-2.0693,-2.0702,-2.0658,-2.0678,-2.0679,-2.0681,-2.0682,-2.0772,-2.0674,-2.0674,-2.0674,-2.0674,0,-2.1185,-2.1185,-2.1107,-2.1103,-2.11,-2.104,-2.1039,-2.1005,-2.0966,-2.0952,-2.0896,-2.0884,-2.0815,-2.0795,-2.0753,-2.0743,-2.0735,-2.0712,-2.0701,-2.0716,-2.0719,-2.0704,-2.0699,-2.0676,-2.0676,-2.0675,-2.0675,0,-2.1276,-2.1225,-2.1212,-2.115,-2.1134,-2.1135,-2.1082,-2.1074,-2.1035,-2.1019,-2.1011,-2.0949,-2.0923,-2.0867,-2.0826,-2.0798,-2.0797,-2.0777,-2.0812,-2.0804,-2.0827,-2.0825,-2.0909,-2.0917,-2.0816,-2.0817,-2.0818,0,-2.132,-2.1318,-2.1257,-2.1244,-2.1219,-2.1199,-2.118,-2.1122,-2.1105,-2.1056,-2.1054,-2.1023,-2.0996,-2.0957,-2.0907,-2.0875,-2.0854,-2.0885,-2.0848,-2.0864,-2.0853,-2.0853,-2.0852,-2.0893,-2.0895,-2.0896,-2.0897,0,-2.1402,-2.1377,-2.1353,-2.132,-2.13,-2.1271,-2.1239,-2.1232,-2.1165,-2.1149,-2.1122,-2.1101,-2.1059,-2.1029,-2.099,-2.096,-2.0917,-2.0909,-2.0912,-2.0927,-2.0947,-2.0935,-2.0833,-2.0907,-2.0906,-2.0905,-2.0905,-2.0904,-2.1469,-2.1465,-2.1421,-2.1396,-2.1367,-2.1338,-2.1328,-2.1288,-2.1265,-2.1227,-2.1193,-2.117,-2.1126,-2.1069,-2.1042,-2.1021,-2.1,-2.1004,-2.1005,-2.1007,-2.1013,-2.0952,-2.1014,-2.1014,-2.1014,-2.1013,-2.1013,0,-2.1548,-2.1517,-2.1495,-2.1452,-2.1433,-2.1396,-2.1359,-2.1344,-2.1325,-2.1288,-2.1263,-2.1232,-2.1203,-2.1152,-2.1118,-2.1112,-2.1091,-2.1105,-2.1104,-2.1098,-2.1034,-2.1035,-2.1122,-2.1122,-2.1122,-2.1122,-2.1122,-2.1122,-2.1586,-2.1577,-2.1547,-2.1521,-2.149,-2.1467,-2.1449,-2.1422,-2.1392,-2.1361,-2.1337,-2.1304,-2.1262,-2.1225,-2.1196,-2.1182,-2.1172,-2.1192,-2.1171,-2.1112,-2.1102,-2.1092,-2.1092,-2.119,-2.119,-2.1235,-2.1236,-2.1236]},{"header":{"parameterUnit":"m.s-1","parameterCategory":1,"la1":30.2991,"la2":30.254,"lo1":-89.0895,"lo2":-89.0444,"dy":0.0017,"dx":0.0017,"nx":28,"ny":28,"refTime":"2025-04-22T21:00:00:Z","depth":0,"parameterNumber":3,"parameterNumberName":"V-component_of_WINDS"},"data":[0,0,0,0,0,0,0,0,0,0,0,0,0,0,0,0,0,0,0,0,0,0,0,0,0,0,0,0,0,0,0,0,0,0,0,0,0,0,0,0,0,0,0,0,0,0,0,0,0,0,0,0,0,0,0,0,0,0,2.6363,2.6364,0,2.638,2.638,2.638,2.6423,2.6424,2.6425,2.6426,2.6441,2.6441,2.6441,0,0,0,0,0,0,0,0,0,0,0,0,0,2.6368,2.6368,2.6363,2.6364,2.6364,2.638,2.638,2.638,2.6423,2.6424,2.6425,2.6426,2.6442,2.6441,2.6441,0,0,0,0,0,0,0,0,0,0,0,0,0,2.6374,2.6368,2.6363,2.6387,2.6389,2.638,2.638,2.638,2.6423,2.6424,2.6426,2.6427,2.6442,2.6441,2.644,2.6409,0,0,2.6438,2.6438,0,0,0,0,0,0,0,0,2.6373,2.6373,2.6383,2.6385,2.6388,2.6401,2.6388,2.639,2.6423,2.641,2.6426,2.6428,2.6427,2.6427,2.6427,2.6409,2.641,2.6438,2.6438,2.6438,2.6437,0,0,0,0,0,0,0,2.6373,2.6373,2.637,2.6384,2.6386,2.6397,2.6399,2.6388,2.641,2.6411,2.6415,2.6416,2.6428,2.6428,2.6428,2.641,2.6438,2.6438,2.6437,2.6437,2.6369,2.6367,0,0,0,0,0,0,2.6369,2.6372,2.6369,2.637,2.6384,2.6396,2.6398,2.6395,2.6411,2.6414,2.6415,2.6418,2.6428,2.6429,2.6429,2.6394,2.6438,2.6437,2.6437,2.637,2.6368,2.6367,0,0,0,0,0,0,2.6369,2.6368,2.6369,2.6372,2.6373,2.6394,2.6391,2.6395,2.6395,2.6413,2.6417,2.641,2.643,2.643,2.6414,2.6395,2.6437,2.6436,2.6372,2.637,2.6368,2.6323,0,0,0,0,0,0,2.6369,2.6368,2.6356,2.6372,2.6373,2.6353,2.6389,2.6394,2.6394,2.6398,2.641,2.6414,2.6431,2.6415,2.6413,2.6395,2.6436,2.6374,2.6371,2.6368,2.6326,2.6319,2.6313,0,0,0,0,0,2.6369,2.6342,2.6355,2.6355,2.6358,2.6352,2.6353,2.6373,2.6392,2.638,2.6393,2.6413,2.6397,2.6413,2.6411,2.6392,2.6375,2.6372,2.6368,2.6329,2.632,2.6314,0,0,0,0,0,0,2.6323,2.6345,2.636,2.6337,2.6343,2.6359,2.6345,2.6364,2.6364,2.6368,2.6393,2.6395,2.6376,2.6383,2.6399,2.6363,2.639,2.6386,2.636,2.6352,2.6346,2.6345,2.6435,0,0,0,0,0,2.631,2.6304,2.6323,2.6301,2.6303,2.6324,2.6322,2.6337,2.6344,2.6346,2.6357,2.6362,2.6359,2.6356,2.6353,2.6327,2.6331,2.6313,2.6307,2.6302,2.6299,2.6287,2.6279,2.6356,2.6356,2.6357,0,0,2.6284,2.6295,2.6289,2.6292,2.6298,2.6291,2.6325,2.6316,2.6311,2.6345,2.6331,2.6339,2.6347,2.6326,2.6317,2.6331,2.6278,2.6298,2.6294,2.6293,2.6283,2.6275,2.6269,2.6354,2.6355,2.6355,0,0,2.6232,2.6239,2.6223,2.6229,2.6238,2.6252,2.6248,2.6263,2.627,2.6256,2.6282,2.6276,2.6269,2.6274,2.6275,2.6227,2.6247,2.6226,2.6193,2.6181,2.6175,2.617,2.6154,2.6147,2.6222,2.6222,2.6222,0,2.6198,2.6188,2.6212,2.6201,2.6202,2.6234,2.6217,2.6222,2.6229,2.6229,2.6245,2.6237,2.6245,2.6226,2.6214,2.6214,2.6211,2.6224,2.6174,2.6169,2.6165,2.6149,2.6143,2.622,2.622,2.622,2.622,0,2.6146,2.6139,2.6125,2.6133,2.6132,2.6118,2.614,2.6137,2.6152,2.6165,2.6151,2.6161,2.6162,2.6159,2.6174,2.6143,2.6151,2.617,2.6197,2.6154,2.6141,2.6135,2.6216,2.6217,2.6218,2.6218,0,0,2.6065,2.6088,2.6082,2.6086,2.61,2.6095,2.6083,2.6085,2.6082,2.6086,2.6077,2.6071,2.6089,2.6091,2.6107,2.6096,2.6059,2.6117,2.6117,2.6106,2.6026,2.6012,2.6005,2.6072,2.6071,2.607,2.6026,0,2.6017,2.5999,2.602,2.5997,2.5992,2.6022,2.6012,2.6019,2.6031,2.6028,2.6041,2.6036,2.606,2.6062,2.6052,2.6065,2.6043,2.6069,2.6064,2.6063,2.6061,2.5998,2.5983,2.594,2.602,2.6019,2.6019,0,2.5958,2.5962,2.5938,2.5955,2.5953,2.5944,2.5948,2.5944,2.5953,2.5963,2.5965,2.5985,2.5975,2.6001,2.5988,2.6005,2.6004,2.601,2.6009,2.601,2.6039,2.5997,2.5927,2.5921,2.601,2.6011,2.6012,0,2.5903,2.5901,2.5888,2.589,2.5909,2.5902,2.5909,2.5919,2.5919,2.5923,2.5923,2.5925,2.5926,2.5927,2.5946,2.5964,2.5931,2.5959,2.5939,2.5938,2.5931,2.5931,2.586,2.5929,2.5929,2.593,2.593,0,2.5847,2.5832,2.5863,2.5854,2.5839,2.5864,2.5847,2.5858,2.5867,2.5861,2.5887,2.5881,2.5907,2.5904,2.592,2.5907,2.5907,2.5914,2.5919,2.5912,2.5911,2.5912,2.5916,2.5928,2.5928,2.5929,2.5929,0,2.5782,2.5802,2.579,2.5809,2.5813,2.5801,2.5817,2.581,2.5824,2.5816,2.5816,2.5837,2.5835,2.5855,2.5856,2.5867,2.5847,2.5856,2.5844,2.5847,2.5827,2.5828,2.5755,2.5747,2.582,2.5819,2.5818,0,2.5746,2.5735,2.5753,2.5752,2.5758,2.5755,2.5756,2.578,2.5779,2.579,2.5782,2.5782,2.5783,2.5779,2.5794,2.5796,2.5805,2.5779,2.5806,2.58,2.5806,2.5806,2.5806,2.5774,2.5773,2.5772,2.5772,0,2.5679,2.569,2.569,2.5694,2.5694,2.5698,2.5704,2.5701,2.5728,2.5726,2.5725,2.5726,2.5728,2.5728,2.5733,2.574,2.576,2.5763,2.5759,2.5752,2.5746,2.575,2.583,2.5765,2.5766,2.5766,2.5766,2.5767,2.5628,2.562,2.5632,2.5632,2.5639,2.5644,2.5639,2.5653,2.5653,2.5657,2.5671,2.5667,2.5678,2.5686,2.5692,2.569,2.5702,2.5696,2.5694,2.5692,2.5689,2.5746,2.569,2.5691,2.5691,2.5691,2.5691,0,2.5563,2.5573,2.5572,2.558,2.558,2.56,2.5608,2.5606,2.5603,2.5611,2.5613,2.5612,2.5612,2.5628,2.5631,2.5626,2.5635,2.5626,2.5627,2.5628,2.5677,2.5681,2.5618,2.5618,2.5618,2.5618,2.5618,2.5618,2.553,2.5518,2.5531,2.5524,2.5533,2.5531,2.5534,2.5539,2.5546,2.5543,2.5544,2.5555,2.5567,2.5571,2.5572,2.5577,2.5577,2.5564,2.5572,2.5617,2.5625,2.5631,2.5635,2.5564,2.5564,2.5524,2.5523,2.5523]}]]